Starlink 2433

operational
NORAD ID: 47841 Int'l Des: 2021-018 Owner: SPXS Country: US Constellation: starlink
LEOCIRCULARSTARLINK_TYPE

About Starlink 2433

Description loading...

Live Position

Loading 3D Globe...

Upcoming Passes

Altitude History

Altitude vs Time

uPlot chart will show altitude changes over time

Two-Line Element Set

1 47841U 21018BG 25306.08805369 .00000108 00000-0 26128-4 0 9993
2 47841 53.0553 84.4410 0001306 79.2468 280.8668 15.06394288257642
Epoch: Nov 2, 2025 • Age: 17 hours

Current Status

Altitude 562.0 km
Velocity 7.58 km/s
Sub-Earth Point -42.15°S, 65.62°E
Launch Date Mar 11, 2021
Age 4.6 years
Type internet

Technical Details

Classification Payload
Mass 260.00 kg
Dry Mass 248.00 kg
Total Mass 260.00 kg
Length 0.20 m
Diameter 2.80 m
Span 9.00 m
Shape Box + pan
Manufacturer SPXS
Bus Type Starlink
Phase Status In Orbit
Owner/State SPXS/US

Large Constellations

Loading constellations...